Wind_Speed
73 75 77 79 81 84 86 88 91 92 90 88 89 90 92 92 91 90 90 88 86 84 83 82 83 84 85 87 89 89 90 90 89 88 87 85 82 79
76 78 80 83 85 87 89 91 93 96 96 91 90 89 88 86 82 80 78 78 77 75 74 74 74 75 76 78 79 82 83 85 86 87 86 85 83 81
79 82 84 86 88 89 91 92 92 92 93 88 84 81 78 75 72 69 68 67 67 67 66 67 67 68 68 69 70 73 75 77 80 82 83 83 82 80
83 85 87 89 90 90 90 89 88 85 84 81 74 69 66 64 62 61 59 58 58 58 58 58 59 60 61 61 62 63 66 69 71 74 78 79 79 79
86 87 89 90 89 88 86 84 80 77 74 71 64 60 58 56 55 54 53 52 52 52 52 52 53 54 54 55 55 57 58 60 63 66 70 74 76 76
87 88 88 88 86 83 79 75 71 68 65 62 58 54 52 51 51 50 49 49 49 50 49 49 49 49 49 49 50 51 52 54 56 59 62 65 70 73
87 86 85 82 79 76 71 67 63 60 58 56 53 51 48 47 47 48 47 46 45 46 46 46 46 45 45 46 46 46 47 48 50 53 55 58 61 65
85 83 80 76 71 67 63 60 57 55 53 52 50 48 46 45 45 45 44 43 42 41 43 42 42 42 42 42 42 42 43 44 46 48 51 53 56 59
82 78 74 68 64 60 56 53 51 50 50 49 47 45 44 43 43 43 42 41 40 39 40 38 38 38 38 38 38 39 39 40 41 43 46 49 51 54
77 72 66 60 56 53 50 48 47 46 45 45 44 43 42 42 42 42 41 40 38 38 39 37 36 36 36 35 36 36 36 37 39 39 41 44 47 50
69 63 59 54 51 49 47 45 43 42 42 42 41 41 40 40 41 41 41 40 38 36 36 36 35 35 34 33 34 34 34 34 35 36 38 40 42 45
61 55 52 49 47 45 45 43 41 40 40 39 38 38 38 38 39 39 39 39 37 34 33 34 33 34 32 32 32 32 32 32 33 33 35 36 38 41
54 49 46 45 43 42 42 41 41 39 38 36 36 36 36 36 36 36 37 37 35 33 32 32 31 32 32 30 31 31 31 32 32 33 34 35 36 39
49 46 44 42 41 40 40 39 38 37 36 35 35 34 35 35 34 34 34 34 33 32 31 31 30 31 31 30 29 30 31 31 32 32 33 34 36 38
46 43 42 40 39 38 38 37 36 36 36 35 35 34 35 34 33 32 32 32 31 31 31 30 30 30 30 29 29 30 30 30 31 32 33 34 35 37
42 40 39 38 38 37 36 35 35 35 35 35 34 34 34 33 32 31 30 30 29 30 30 29 29 29 29 30 30 30 30 31 31 32 33 34 35 36
39 37 37 36 35 35 35 34 34 34 34 34 34 33 32 31 30 30 29 29 29 29 29 30 30 30 30 30 30 31 31 32 33 34 34 35 36 37
38 37 36 35 34 33 33 33 32 32 32 32 32 32 31 30 30 30 30 29 29 29 29 29 30 30 30 30 31 31 32 32 34 35 36 36 37 38
37 36 35 34 33 33 32 32 31 31 31 31 30 30 29 29 29 29 29 29 28 28 28 28 29 29 29 29 30 31 32 33 34 35 36 36 37 38
36 36 34 33 32 32 31 31 30 30 30 29 28 28 28 28 28 27 27 27 27 27 27 27 28 28 29 28 28 29 31 32 33 34 35 36 36 37
35 34 33 32 31 31 30 29 29 28 28 27 27 27 27 27 26 26 26 26 26 26 26 26 27 28 28 28 27 28 30 31 32 32 34 35 36 37
33 32 31 30 30 29 29 28 28 27 27 27 26 26 26 26 25 25 25 25 25 26 26 26 27 28 28 28 28 28 30 31 32 32 33 34 35 35
31 30 29 28 28 28 27 27 27 26 26 26 26 25 25 25 25 26 26 26 26 26 27 28 28 29 29 29 29 29 30 32 33 33 33 35 35 35
Wind_Direction
299 299 299 299 299 298 297 297 296 294 293 292 291 290 288 286 285 283 281 280 278 275 273 271 269 267 264 263 261 259 257 256 254 253 252 252 251 251
301 300 300 300 299 299 298 298 297 296 295 294 292 290 289 287 285 283 282 280 279 277 275 273 271 269 266 264 262 260 258 256 254 252 251 250 249 249
302 302 302 301 301 300 300 299 298 297 295 295 293 291 289 287 285 284 282 281 279 278 276 274 272 270 268 266 264 261 258 256 253 251 249 248 247 247
304 304 303 303 302 301 300 299 298 297 296 295 294 291 289 288 286 285 283 282 280 279 277 275 274 272 270 268 266 263 259 257 254 251 249 246 245 243
305 305 305 304 303 302 300 299 298 296 296 295 295 292 290 288 286 285 284 283 282 280 278 277 275 273 271 269 267 264 260 257 254 252 249 246 243 241
307 306 305 304 303 301 300 298 297 296 295 295 294 292 290 288 287 286 285 284 283 282 280 278 276 275 272 270 267 264 261 257 255 252 249 247 244 241
307 306 305 304 302 301 299 298 297 296 295 294 293 292 291 288 287 287 286 284 283 282 280 279 277 276 274 271 268 265 262 259 256 252 249 246 244 242
308 307 305 303 302 300 299 297 297 296 295 294 293 293 291 289 289 288 287 285 283 282 281 279 278 276 274 271 268 265 262 259 256 253 249 246 244 242
308 307 305 303 301 299 298 297 296 296 295 294 294 293 292 291 290 289 288 287 285 283 281 279 277 275 272 270 268 265 263 260 256 253 250 246 244 242
308 307 305 303 301 299 298 297 296 295 294 294 294 294 293 292 291 290 289 288 287 285 283 280 275 272 271 269 267 264 262 260 257 253 251 247 244 242
308 307 305 304 302 300 299 298 297 296 294 294 294 294 293 292 291 290 290 289 288 285 283 280 275 272 270 269 267 265 262 259 256 253 250 247 244 241
308 306 305 304 302 301 300 299 298 297 295 295 295 294 294 293 292 291 290 290 289 287 282 279 276 273 270 268 267 265 262 259 256 253 250 247 244 242
308 306 305 304 302 302 301 301 300 298 297 296 295 295 294 294 292 291 290 289 289 287 283 279 276 273 271 268 266 264 262 259 256 253 250 248 245 243
308 307 306 305 303 302 302 301 301 300 299 298 298 297 296 295 293 291 290 288 288 286 283 280 276 273 271 269 266 264 261 259 256 253 250 248 246 244
307 307 307 305 304 303 303 302 301 300 299 299 298 298 297 296 294 292 290 288 286 284 282 279 277 273 272 270 268 265 262 260 257 254 251 249 247 245
306 306 306 305 304 304 303 302 301 301 301 300 299 298 297 296 294 292 290 288 286 283 281 279 277 275 273 271 269 266 263 261 258 255 253 251 249 247
306 306 306 305 304 303 303 302 301 301 302 301 300 299 297 296 294 292 290 288 286 284 282 279 277 275 274 272 270 267 264 262 259 257 255 253 251 250
308 308 307 306 305 304 303 302 302 302 303 302 301 299 297 295 294 292 290 288 287 284 282 280 278 276 275 273 270 268 266 264 262 259 257 255 253 251
309 309 309 307 306 305 304 304 303 303 303 303 302 300 298 297 295 292 290 288 287 284 282 280 279 277 276 274 272 270 268 266 264 262 259 257 254 252
309 309 309 308 307 307 306 305 305 304 303 303 302 302 301 300 298 295 292 290 288 286 284 282 281 279 278 276 274 272 270 268 265 263 260 258 256 254
309 309 309 309 308 308 307 307 307 306 304 304 303 303 303 302 300 298 295 293 290 288 286 285 283 281 279 277 274 271 270 270 268 265 262 260 258 256
309 310 309 309 309 309 309 308 308 307 306 305 304 303 303 302 301 299 297 295 292 290 288 286 285 284 282 279 276 273 271 270 269 267 265 264 261 258
309 309 309 309 310 310 310 309 308 308 307 306 304 303 303 302 301 300 298 295 293 290 288 287 286 285 283 281 279 276 273 271 269 268 267 266 264 261
Height
5650 5643 5635 5627 5618 5609 5599 5589 5580 5575 5578 5576 5565 5554 5544 5537 5531 5524 5520 5517 5515 5513 5511 5510 5510 5511 5512 5515 5518 5523 5528 5534 5540 5546 5553 5560 5567 5573
5631 5623 5614 5605 5595 5585 5575 5565 5553 5542 5541 5547 5535 5524 5514 5507 5502 5496 5492 5488 5486 5485 5483 5482 5482 5483 5484 5487 5490 5494 5499 5505 5511 5518 5525 5534 5542 5549
5610 5601 5591 5581 5571 5560 5549 5539 5528 5515 5506 5512 5507 5496 5487 5481 5476 5472 5469 5466 5464 5461 5460 5458 5458 5459 5460 5462 5465 5468 5472 5477 5483 5490 5498 5507 5516 5526
5588 5578 5567 5556 5545 5534 5523 5512 5502 5491 5480 5479 5481 5473 5465 5459 5455 5452 5449 5446 5444 5442 5440 5438 5438 5438 5439 5440 5442 5445 5448 5453 5458 5465 5473 5483 5492 5499
5565 5554 5542 5530 5520 5508 5497 5487 5478 5469 5459 5454 5455 5452 5446 5441 5436 5434 5431 5429 5426 5424 5422 5421 5420 5420 5420 5421 5422 5425 5428 5432 5437 5442 5448 5456 5465 5475
5542 5530 5518 5505 5494 5484 5474 5465 5456 5449 5442 5436 5434 5433 5429 5425 5420 5418 5416 5413 5411 5408 5406 5405 5404 5403 5403 5404 5405 5407 5409 5412 5416 5421 5427 5434 5443 5452
5521 5508 5495 5483 5471 5461 5452 5445 5438 5432 5426 5421 5418 5415 5413 5409 5406 5402 5400 5398 5397 5394 5392 5391 5389 5389 5388 5388 5389 5390 5392 5395 5399 5403 5409 5415 5423 5431
5497 5485 5473 5461 5451 5442 5434 5427 5421 5415 5410 5406 5403 5400 5397 5394 5391 5388 5385 5383 5383 5382 5378 5377 5375 5375 5374 5374 5374 5376 5377 5380 5383 5387 5392 5398 5405 5412
5473 5463 5452 5442 5432 5425 5418 5412 5407 5401 5396 5391 5388 5386 5383 5380 5377 5374 5371 5369 5368 5367 5364 5364 5363 5362 5361 5361 5361 5363 5364 5367 5370 5373 5377 5383 5389 5396
5452 5441 5432 5424 5415 5408 5403 5399 5394 5389 5383 5379 5375 5373 5369 5366 5363 5360 5358 5356 5356 5354 5351 5350 5350 5349 5349 5349 5350 5351 5352 5354 5357 5360 5364 5369 5374 5381
5434 5423 5414 5407 5401 5394 5389 5385 5381 5377 5372 5367 5364 5360 5357 5354 5350 5347 5345 5343 5342 5342 5339 5337 5338 5337 5338 5339 5339 5340 5341 5343 5345 5348 5352 5356 5361 5367
5418 5409 5400 5393 5387 5381 5375 5371 5367 5364 5360 5356 5353 5349 5346 5342 5339 5336 5333 5330 5329 5329 5328 5326 5325 5325 5327 5328 5328 5329 5331 5333 5335 5338 5341 5345 5349 5354
5402 5395 5388 5381 5375 5369 5364 5359 5355 5351 5348 5345 5342 5338 5335 5332 5328 5325 5322 5319 5317 5317 5316 5315 5315 5314 5315 5318 5318 5319 5320 5322 5325 5327 5330 5334 5338 5343
5387 5381 5375 5369 5363 5358 5353 5348 5344 5340 5336 5333 5330 5327 5324 5321 5318 5315 5312 5309 5307 5306 5305 5304 5305 5305 5305 5306 5308 5309 5310 5312 5314 5317 5320 5323 5327 5331
5373 5368 5363 5357 5352 5347 5343 5338 5333 5329 5326 5323 5320 5317 5313 5310 5307 5305 5302 5300 5298 5296 5295 5294 5294 5295 5295 5296 5298 5299 5301 5302 5304 5306 5309 5312 5316 5320
5362 5357 5352 5346 5341 5337 5333 5328 5324 5320 5316 5312 5309 5306 5303 5300 5297 5294 5292 5290 5288 5287 5286 5285 5285 5285 5285 5286 5287 5289 5290 5292 5293 5295 5298 5302 5305 5309
5351 5347 5342 5337 5332 5327 5323 5318 5314 5310 5306 5302 5299 5296 5293 5290 5287 5285 5283 5281 5279 5278 5276 5275 5275 5275 5275 5276 5277 5277 5279 5280 5282 5284 5287 5290 5293 5297
5339 5335 5331 5326 5321 5317 5313 5309 5305 5301 5297 5293 5289 5286 5283 5280 5278 5275 5273 5271 5270 5268 5267 5266 5265 5265 5265 5265 5266 5266 5267 5268 5270 5272 5274 5277 5281 5284
5329 5325 5320 5316 5311 5307 5303 5299 5295 5291 5287 5284 5280 5277 5274 5271 5268 5266 5264 5262 5260 5259 5258 5256 5255 5255 5255 5255 5255 5255 5256 5256 5257 5259 5261 5264 5267 5270
5320 5315 5310 5306 5302 5298 5294 5290 5286 5282 5278 5274 5271 5268 5265 5262 5259 5257 5254 5252 5251 5249 5248 5247 5246 5245 5245 5245 5245 5244 5244 5244 5245 5247 5248 5250 5253 5256
5310 5306 5301 5297 5292 5288 5285 5281 5277 5273 5269 5266 5263 5259 5256 5253 5251 5248 5246 5243 5242 5240 5239 5237 5236 5235 5234 5234 5234 5234 5233 5232 5233 5234 5236 5237 5240 5242
5301 5297 5292 5288 5284 5280 5276 5273 5269 5265 5261 5258 5255 5251 5248 5245 5243 5240 5237 5235 5233 5231 5230 5228 5226 5225 5224 5223 5223 5223 5222 5222 5221 5222 5223 5225 5226 5228
5292 5288 5284 5280 5276 5272 5268 5265 5261 5257 5254 5250 5247 5244 5241 5238 5235 5232 5229 5227 5224 5222 5220 5219 5217 5215 5214 5212 5212 5211 5211 5210 5210 5210 5211 5211 5212 5214